{"data":{"norad_id":65024,"intl_designator":"2025-161K","name":"STARLINK-34773","alt_names":[],"object_type":"PAYLOAD","status":"ACTIVE","operator":null,"country":"US","launch_date":"2025-07-30","launch_site_code":"AFWTR","launch_vehicle":null,"mission":null,"orbit_class":"UNKNOWN","rcs_meters":null,"size_class":null,"mass_kg":null,"dimensions":null,"purposes":["comms"],"wikipedia_slug":null,"has_3d_model":false,"image_url":null,"decayed_at":null,"tle_current":{"epoch":"2026-05-25T04:00:03.998880Z","epoch_age_seconds":50830,"freshness":"FRESH","line1":"1 65024U 25161K   26145.16671295  .00006423  00000+0  20115-3 0  9993","line2":"2 65024  53.1592 298.7018 0001027  64.9226 259.8365 15.34385643  5801","mean_motion":15.34385643,"eccentricity":0.0001027,"inclination_deg":53.1592,"raan_deg":298.7018,"arg_perigee_deg":64.9226,"mean_anomaly_deg":259.8365,"bstar":0.00020115,"rev_number":580,"period_min":93.848636199733,"perigee_km":462.04335389431,"apogee_km":463.44847124455,"semimajor_km":6840.8829125694,"source":"CELESTRAK","updated_at":"2026-05-25T13:38:20.669274Z"}}}